This is the latest recevied weather packets stored in our database for station/object KM4KBD. If no packets are shown the sender has not sent any weather packets the latest 10 day(s).
| Time | Temp. | Humidity | Pressure | Rain* | Wind** | Luminosity | Snow |
|---|---|---|---|---|---|---|---|
| 1777310750 | 26.11° C | 46% | 1021.9 hPa | 0 mm | - | 512 W/m² | - |
| 1777310447 | 26.11° C | 46% | 1022 hPa | 0 mm | - | 612 W/m² | - |
| 1777310144 | 26.11° C | 48% | 1021.8 hPa | 0 mm | - | 445 W/m² | - |
| 1777309842 | 26.67° C | 47% | 1022 hPa | 0 mm | - | 604 W/m² | - |
| 1777309540 | 26.67° C | 46% | 1022 hPa | 0 mm | - | 688 W/m² | - |
| 1777309237 | 26.67° C | 48% | 1022.1 hPa | 0 mm | - | 699 W/m² | - |
| 1777308935 | 26.11° C | 48% | 1022 hPa | 0 mm | - | 690 W/m² | - |
| 1777308630 | 26.11° C | 48% | 1022 hPa | 0 mm | - | 685 W/m² | - |
| 1777308326 | 26.11° C | 48% | 1022.1 hPa | 0 mm | - | 630 W/m² | - |
| 1777308021 | 25.56° C | 49% | 1022.2 hPa | 0 mm | - | 650 W/m² | - |
| 1777307720 | 25.56° C | 48% | 1022.1 hPa | 0 mm | - | 614 W/m² | - |
| 1777307416 | 26.11° C | 49% | 1022.2 hPa | 0 mm | - | 621 W/m² | - |
| 1777307114 | 25.56° C | 48% | 1022.6 hPa | 0 mm | - | 632 W/m² | - |
| 1777306811 | 25.56° C | 48% | 1022.6 hPa | 0 mm | - | 627 W/m² | - |
| 1777306508 | 25.56° C | 50% | 1022.9 hPa | 0 mm | - | 714 W/m² | - |
| 1777306203 | 25° C | 52% | 1022.9 hPa | 0 mm | - | 692 W/m² | - |
| 1777305898 | 25.56° C | 52% | 1022.8 hPa | 0 mm | - | 690 W/m² | - |
| 1777305595 | 25° C | 54% | 1022.8 hPa | 0 mm | - | 673 W/m² | - |
| 1777305291 | 25° C | 56% | 1023.1 hPa | 0 mm | - | 645 W/m² | - |
| 1777304990 | 23.89° C | 60% | 1023 hPa | 0 mm | - | 667 W/m² | - |
| 1777304686 | 23.89° C | 56% | 1023.1 hPa | 0 mm | - | 601 W/m² | - |
| 1777304384 | 23.33° C | 62% | 1023.3 hPa | 0 mm | - | 543 W/m² | - |
| 1777304081 | 22.78° C | 63% | 1023.3 hPa | 0 mm | - | 430 W/m² | - |
| 1777303778 | 22.78° C | 63% | 1023.3 hPa | 0 mm | - | 328 W/m² | - |
| 1777303475 | 22.78° C | 62% | 1023.3 hPa | 0 mm | - | 335 W/m² | - |
* Rain latest hour (hover to see other rain measurements)
** Current wind speed in m/s (hover to see current wind gust speed)